CW7923 Weather Reports


time (UTC)temp
C
wind
direction
speed
KPH
gust
KPH
rain 1hr
cm
rain 24hr
cm
rain mn
cm
humidity
%
barometer
mb
20260505214315 14 246 6.4 24.1 0.00 0.00 0.00 63 1003.9
20260505213325 15 265 6.4 24.1 0.00 0.00 0.00 52 1003.8
20260505212332 16 304 3.2 12.9 0.00 0.00 0.00 51 1003.7
20260505211320 16 131 1.6 14.5 0.00 0.00 0.00 47 1003.4
20260505210319 16 31 3.2 16.1 0.00 0.00 0.00 47 1003.4
20260505204153 16 252 0.0 8.0 0.00 0.00 0.00 47 1003.3
20260505203203 16 55 6.4 16.1 0.00 0.00 0.00 49 1003.7
20260505202131 16 282 6.4 16.1 0.00 0.00 0.00 49 1003.6
20260505201135 16 337 6.4 12.9 0.00 0.00 0.00 49 1003.6
20260505200121 15 281 6.4 14.5 0.00 0.00 0.00 50 1003.6
20260505195048 16 9 4.8 16.1 0.00 0.00 0.00 49 1003.8
20260505191755 15 313 3.2 12.9 0.00 0.00 0.00 55 1004.1
20260505190740 14 266 3.2 22.5 0.00 0.00 0.00 58 1004.3
20260505185759 14 134 8.0 22.5 0.00 0.00 0.00 59 1004.3
20260505184805 14 161 6.4 17.7 0.00 0.00 0.00 57 1004.3
20260505183812 14 156 6.4 17.7 0.00 0.00 0.00 56 1004.4
20260505182837 15 248 3.2 9.7 0.00 0.00 0.00 52 1004.3
20260505181848 15 281 3.2 9.7 0.00 0.00 0.00 50 1004.2
20260505180813 15 298 1.6 3.2 0.00 0.00 0.00 48 1004.1
20260505175811 15 219 0.0 11.3 0.00 0.00 0.00 48 1004.1
20260505174813 15 234 3.2 11.3 0.00 0.00 0.00 48 1004.1
20260505173833 15 273 1.6 4.8 0.00 0.00 0.00 46 1004.0
20260505171719 14 308 1.6 11.3 0.00 0.00 0.00 49 1003.8
20260505170733 14 294 4.8 14.5 0.00 0.00 0.00 50 1004.1
20260505165705 13 33 8.0 14.5 0.00 0.00 0.00 49 1004.1
20260505164648 13 327 9.7 17.7 0.00 0.00 0.00 50 1004.0
20260505163701 13 302 11.3 20.9 0.00 0.00 0.00 51 1003.8
20260505162638 13 327 12.9 20.9 0.00 0.00 0.00 52 1004.1
20260505161608 12 319 11.3 19.3 0.00 0.00 0.00 57 1003.9
20260505160555 12 315 14.5 29.0 0.00 0.00 0.00 58 1004.1
20260505152443 12 291 12.9 22.5 0.00 0.00 0.00 62 1004.6
20260505151424 12 298 14.5 19.3 0.00 0.00 0.00 63 1004.7
20260505150418 12 325 12.9 20.9 0.00 0.00 0.00 64 1004.6
20260505140252 14 324 3.2 20.9 0.00 0.00 0.00 51 1004.8
20260505124001 14 295 0.0 4.8 0.00 0.00 0.00 42 1003.4
20260505121857 14 281 1.6 4.8 0.00 0.00 0.00 41 1003.5
20260505115722 14 303 0.0 4.8 0.00 0.00 0.00 40 1003.6
20260505114733 14 296 0.0 6.4 0.00 0.00 0.00 41 1003.4
20260505113718 15 162 1.6 9.7 0.00 0.00 0.00 40 1003.4
20260505112721 15 261 1.6 9.7 0.00 0.00 0.00 41 1003.2
20260505110534 15 263 3.2 9.7 0.00 0.00 0.00 39 1003.2
20260505101411 15 156 1.6 8.0 0.00 0.00 0.00 35 1003.9
20260505100428 15 185 0.0 4.8 0.00 0.00 0.00 36 1003.6
20260505095431 15 241 0.0 4.8 0.00 0.00 0.00 36 1003.7
20260505094426 14 175 0.0 4.8 0.00 0.00 0.00 36 1003.5
20260505093418 15 242 0.0 0.0 0.00 0.00 0.00 36 1003.5
20260505092401 15 198 0.0 0.0 0.00 0.00 0.00 37 1003.6
20260505091413 15 198 0.0 0.0 0.00 0.00 0.00 36 1003.8
20260505090413 16 295 0.0 0.0 0.00 0.00 0.00 33 1003.8
20260505085429 16 295 0.0 0.0 0.00 0.00 0.00 33 1004.0
20260505083323 16 295 0.0 0.0 0.00 0.00 0.00 33 1004.2
20260505082335 16 295 0.0 0.0 0.00 0.00 0.00 32 1004.5
20260505081334 16 295 0.0 0.0 0.00 0.00 0.00 32 1004.3
20260505080303 17 295 0.0 8.0 0.00 0.00 0.00 32 1004.6
20260505074102 17 261 0.0 0.0 0.00 0.00 0.00 31 1004.7
20260505073112 17 261 0.0 0.0 0.00 0.00 0.00 31 1004.6
20260505072100 17 262 0.0 3.2 0.00 0.00 0.00 30 1004.5
20260505071058 17 263 0.0 4.8 0.00 0.00 0.00 30 1004.6
20260505070110 17 268 0.0 3.2 0.00 0.00 0.00 30 1004.6
20260505065041 18 269 0.0 0.0 0.00 0.00 0.00 29 1004.3
20260505064103 18 273 0.0 1.6 0.00 0.00 0.00 28 1004.2
20260505063037 18 277 0.0 1.6 0.00 0.00 0.00 28 1004.1
20260505062009 18 277 0.0 1.6 0.00 0.00 0.00 28 1004.0
20260505060941 18 277 0.0 0.0 0.00 0.00 0.00 27 1004.1
20260505054829 19 276 0.0 6.4 0.00 0.00 0.00 25 1003.9
20260505053758 19 264 0.0 9.7 0.00 0.00 0.00 25 1003.9
20260505052805 19 267 0.0 9.7 0.00 0.00 0.00 25 1003.8
20260505051757 19 269 0.0 1.6 0.00 0.00 0.00 24 1003.8
20260505050731 20 273 0.0 3.2 0.00 0.00 0.00 24 1003.6
20260505041753 20 304 0.0 0.0 0.00 0.00 0.00 23 1003.5
20260505040726 20 304 0.0 0.0 0.00 0.00 0.00 24 1003.3
20260505035712 20 304 0.0 0.0 0.00 0.00 0.00 23 1003.4
20260505034721 20 304 0.0 0.0 0.00 0.00 0.00 23 1003.4
20260505033658 20 304 0.0 0.0 0.00 0.00 0.00 23 1003.2
20260505032702 21 304 0.0 0.0 0.00 0.00 0.00 23 1003.0
20260505031715 21 304 0.0 0.0 0.00 0.00 0.00 22 1002.8
20260505030709 21 304 0.0 0.0 0.00 0.00 0.00 21 1002.7
20260505025648 21 309 1.6 12.9 0.00 0.00 0.00 21 1002.4
20260505024636 21 302 0.0 8.0 0.00 0.00 0.00 21 1002.3
20260505023602 21 294 0.0 0.0 0.00 0.00 0.00 21 1002.2
20260505022557 22 300 0.0 9.7 0.00 0.00 0.00 20 1002.2
20260505020451 22 309 0.0 8.0 0.00 0.00 0.00 19 1002.0
20260505015446 22 277 0.0 9.7 0.00 0.00 0.00 19 1001.8
20260505014444 22 267 0.0 8.0 0.00 0.00 0.00 19 1001.9
20260505013433 22 292 0.0 0.0 0.00 0.00 0.00 19 1001.6
20260505012437 23 292 0.0 8.0 0.00 0.00 0.00 18 1001.5
20260505011422 23 281 0.0 3.2 0.00 0.00 0.00 19 1001.4
20260505010408 23 306 0.0 4.8 0.00 0.00 0.00 19 1001.5
20260505003032 23 292 0.0 9.7 0.00 0.00 0.00 17 1001.6
20260505002019 23 266 0.0 4.8 0.00 0.00 0.00 17 1001.7
20260505001044 23 291 0.0 6.4 0.00 0.00 0.00 17 1001.7
20260504234924 23 272 1.6 17.7 0.00 0.00 0.00 16 1001.8
20260504233949 23 291 0.0 16.1 0.00 0.00 0.00 15 1001.9
20260504230639 24 298 1.6 14.5 0.00 0.00 0.00 14 1002.2
20260504225640 24 306 1.6 14.5 0.00 0.00 0.00 13 1002.2
20260504224607 24 300 0.0 12.9 0.00 0.00 0.00 12 1002.2
20260504223536 24 263 3.2 12.9 0.00 0.00 0.00 13 1002.3
20260504222504 25 280 1.6 11.3 0.00 0.00 0.00 13 1002.6
20260504221512 25 282 0.0 11.3 0.00 0.00 0.00 13 1002.7
20260504220532 25 238 3.2 12.9 0.00 0.00 0.00 12 1002.8
20260504215510 25 277 1.6 12.9 0.00 0.00 0.00 10 1003.0